Weather Roundup
Issued by NWS

Home | Current Version | Previous Version | Text Only | Print | Product List | Glossary On
Versions: 1 2 3 4 5 6 7 8 9 10 11 12 13 14 15 16 17 18 19 20 21 22 23 24 25 26 27 28 29 30 31 32 33 34 35 36 37 38 39 40 41 42 43 44 45 46 47 48 49 50
000
NZUS93 KARX 250110
HRRWXR

CURRENT HOURLY OBSERVATIONS ACROSS
MUCH OF THE UPPER MISSISSIPPI VALLEY
NATIONAL WEATHER SERVICE LA CROSSE WI
800 PM CDT FRI OCT 24 2014


...SOUTHEAST MINNESOTA...


CITY           SKY/WX    TMP DP  RH WIND       PRES   REMARKS
ROCHESTER      FOG       57  56  96 S8        29.91R VSB 1/4
ROCHESTER/MAYO FAIR      57  56  97 S5        29.90S
WINONA         CLOUDY    59  55  88 CALM      29.89S
AUSTIN         FOG       55  54  94 CALM      29.90S VSB<1/4
ALBERT LEA     PTCLDY    55  54  94 CALM      29.91R FOG
DODGE CENTER   FOG       54  54 100 SW6       29.90R VSB 3/4
PRESTON        CLOUDY    56  55  95 SW5       29.91S FOG
OWATONNA       MOCLDY    54  48  82 SW5       29.90R
FARIBAULT      MOCLDY    54  50  87 SW5       29.89S
$$

...ELSEWHERE IN MINNESOTA...


CITY           SKY/WX    TMP DP  RH WIND       PRES   REMARKS
MINNEAPOLIS    CLOUDY    62  53  72 S5        29.85S
INTNL FALLS    PTCLDY    64  37  36 W14G25    29.66S
DULUTH         PTCLDY    59  50  72 SW13      29.76F
RED WING       CLOUDY    52  50  93 CALM      29.86S FOG
REDWOOD FALLS  MOCLDY    61  41  47 W9        29.89R
MANKATO        MOCLDY    63  46  55 SW3       29.89S
WORTHINGTON    PTCLDY    55  39  54 W6        29.95R
FAIRMONT       MOCLDY    57   5  12 W3        29.91S
$$

...SOUTHWEST WISCONSIN...


CITY           SKY/WX    TMP DP  RH WIND       PRES   REMARKS
LA CROSSE      CLOUDY    60  56  86 S8        29.89S
PRAIRIE DU CHI CLOUDY    59  56  88 SW3       29.91S
BOSCOBEL       CLOUDY    59  57  93 SW3       29.91F FOG
LONE ROCK      CLOUDY    62  54  74 CALM      29.91F
PLATTEVILLE    CLOUDY    59  55  85 CALM      29.93F
FORT MC COY    CLOUDY    58  56  91 CALM      29.90S
CAMP DOUGLAS   MOCLDY    59  59 100 S5        29.89F
VIROQUA        CLOUDY    57  57 100 SW6       29.91S
WIS DELLS      CLOUDY    58  50  74 SW7       29.90F
$$

...ELSEWHERE IN WISCONSIN...


CITY           SKY/WX    TMP DP  RH WIND       PRES   REMARKS
MILWAUKEE      CLOUDY    54  49  83 S6        29.94S HAZE
MADISON        CLOUDY    58  50  75 CALM      29.93S
GREEN BAY      PTCLDY    51  49  92 S5        29.89F
EAU CLAIRE     CLOUDY    56  55  97 SW5       29.87S
BLACK RVR FLS  CLOUDY    58  58 100 CALM      29.88S FOG
MEDFORD        CLOUDY    55  51  89 SW5       29.86F
WAUSAU         CLOUDY    56  49  77 S6        29.86F
WIS RAPIDS     CLOUDY    57  51  80 S8        29.90F
MARSHFIELD     CLOUDY    57  53  86 SW7       29.87F
RICE LAKE      CLOUDY    56  54  92 SW7       29.87S FOG
$$

...NORTHEAST IOWA...


CITY           SKY/WX    TMP DP  RH WIND       PRES   REMARKS
DECORAH        CLOUDY    57  57 100 VRB3      29.91S FOG
MASON CITY     PTCLDY    51  50  96 S5        29.92S
CHARLES CITY   FOG       59  59 100 S6        29.92S VSB<1/4
OELWEIN        CLOUDY    59  59 100 SW8       29.93S FOG
$$

...ELSEWHERE IN IOWA...


CITY           SKY/WX    TMP DP  RH WIND       PRES   REMARKS
DES MOINES     MOCLDY    60  58  92 S7        29.93R FOG
IOWA CITY      CLOUDY    59  59 100 CALM      29.96R FOG
FORT DODGE     PTCLDY    55  50  82 CALM      29.94R
$$

...NORTHERN ILLINOIS...


CITY           SKY/WX    TMP DP  RH WIND       PRES   REMARKS
CHICAGO-OHARE  MOCLDY    61  45  55 S7        29.95R
CHICAGO-MIDWAY CLOUDY    63  48  58 S6        29.95S
MOLINE         CLOUDY    63  57  81 W8        29.95R
ROCKFORD       CLOUDY    58  47  66 S3        29.96R
PEORIA         CLOUDY    63  52  67 S6        29.97R
$$

NOTE: "FAIR" INDICATES FEW OR NO CLOUDS BELOW 12,000 FEET WITH NO
SIGNIFICANT WEATHER AND/OR OBSTRUCTIONS TO VISIBILITY. WIND
SPEEDS ARE IN MILES-PER-HOUR.



USA.gov is the U.S. government's official web portal to all federal, state and local government web resources and services.